Flag for United Kingdom Weather past 2 weeks in Bridlington, England, United Kingdom

Now
40 °F

Chilly.


Feels Like: 34 °F
Forecast: 43 / 52 °F
Wind: 9 mph from Southwest

Location: Bridlington Mrsc

Current Time: Mar 6, 2015 at 4:26:05 AM

Latest Report: Mar 6, 2015 at 3:00 AM


Visibility: N/A

Pressure: 30.45 "Hg

Humidity: 88%

Dew point: 36 °F

Location of BridlingtonLocation

Historic Weather in Bridlington — Graph

°F

Bridlington temperature yesterday

Maximum temperature yesterday: 51 °F (at 3:00 PM)
Minimum temperature yesterday: 35 °F (at 7:00 AM)
Average temperature yesterday: 42 °F

Past Weeks' High & Low Weather Summary

 TemperatureHumidityPressure
High51 °F (Feb 26, 12:00 PM)100% (Feb 26, 12:00 AM)30.58 "Hg (Feb 26, 12:00 AM)
Low30 °F (Feb 22, 7:00 AM)45% (Mar 4, 2:00 PM)28.97 "Hg (Feb 23, 6:00 PM)
Average41 °F79%29.68 "Hg
* Reported Feb 19 2:00 AM — Mar 6 2:00 AM, Bridlington, Weather by CustomWeather, © 2015

Note: Actual official high and low records may vary slightly from our data, if they occured in-between our weather recording intervals... More about our weather records

Advertising

Bridlington weather history for previous 24 hours

 ConditionsComfort  
Time TempWeatherWind HumidityBarometerVisibility
2:00 AM
Fri, Mar 6
40 °FChilly.8 mph87%30.47 "HgN/A
1:00 AM40 °FChilly.8 mph86%30.46 "HgN/A
12:00 AM40 °FQuite cool.10 mph84%30.46 "HgN/A
11:00 PM
Thu, Mar 5
42 °FQuite cool.10 mph81%30.47 "HgN/A
10:00 PM42 °FQuite cool.7 mph79%30.48 "HgN/A
8:00 PM46 °FCool.6 mph68%30.49 "HgN/A
6:00 PM48 °FCool.5 mph64%30.49 "HgN/A
5:00 PM49 °FCool.12 mph62%30.47 "HgN/A
4:00 PM49 °FCool.17 mph59%30.47 "HgN/A
3:00 PM51 °FCool.17 mph57%30.49 "HgN/A
2:00 PM49 °FCool.15 mph61%30.50 "HgN/A
1:00 PM47 °FCool.8 mph71%30.51 "HgN/A
12:00 PM46 °FCool.13 mph72%30.52 "HgN/A
11:00 AM44 °FQuite cool.12 mph75%30.53 "HgN/A
10:00 AM44 °FQuite cool.12 mph76%30.55 "HgN/A
9:00 AM39 °FChilly.9 mph83%30.56 "HgN/A
8:00 AM36 °FChilly.8 mph86%30.56 "HgN/A
7:00 AM35 °FChilly.6 mph87%30.56 "HgN/A
6:00 AM36 °FChilly.2 mph88%30.57 "HgN/A
5:00 AM37 °FChilly.9 mph85%30.56 "HgN/A
4:00 AM38 °FChilly.8 mph86%30.57 "HgN/A
Weather by CustomWeather, © 2015

See weather overviewHow to use our weather pages